Location: Veytaux
(46.4185°N, 6.9320°E)
Time: 08:35:59
(UTC+00:00)

NOSS 3-3 (A) - Pass Details

Date: 27 May 2022
Orbit: 779 x 1433 km, 63.4° (Epoch: 28 June)

Event Time Altitude Azimuth Distance (km) Brightness Sun altitude
Exits shadow 02:30:52 14° 211° (SSW) 2,195 5.2 -10.9°
Maximum altitude 02:35:49 78° 126° (SE) 923 3.9 -10.3°
Drops below altitude 10° 02:42:16 10° 41° (NE) 2,799 8.1 -9.5°
Sets 02:45:05 0° 40° (NE) 3,857 9.5 -9.2°
